Regional Weather Roundup
Issued by NWS

Home | Current Version | Previous Version | Text Only | Print | Product List | Glossary On
Versions: 1 2 3 4 5 6 7 8 9 10 11 12 13 14 15 16 17 18 19 20 21 22 23 24 25 26 27 28 29 30 31 32 33 34 35 36 37 38 39 40 41 42 43 44 45 46 47 48 49 50
000
ASUS43 KLOT 161007
RWRIL

ILLINOIS REGIONAL WEATHER ROUNDUP
NATIONAL WEATHER SERVICE CHICAGO/ROMEOVILLE IL
400 AM CST WED JAN 16 2019

NOTE: "FAIR" INDICATES FEW OR NO CLOUDS BELOW 12,000 FEET WITH NO
SIGNIFICANT WEATHER AND/OR OBSTRUCTIONS TO VISIBILITY.

* THESE STATIONS ARE NOT UNDER NWS QUALITY CONTROL. THEY ALSO MAY NOT
  REPORT WEATHER SUCH AS PRECIPITATION OR FOG.

ILZ001-002-007-009-015-016-024-161100-
NORTHWEST ILLINOIS

CITY           SKY/WX    TMP DP  RH WIND       PRES   REMARKS
MOLINE         CLOUDY    34  29  82 NW8       30.15R WCI  27
STERLING*      CLOUDY    33  30  88 NW5       30.14R WCI  29
SAVANNA*       CLOUDY    32  27  80 NW8       30.14S WCI  25
$$

ILZ003-004-008-010-011-017-018-161100-
NORTH CENTRAL ILLINOIS

CITY           SKY/WX    TMP DP  RH WIND       PRES   REMARKS
ROCKFORD       CLOUDY    33  27  78 NW10      30.14R WCI  25
FREEPORT*      CLOUDY    32  26  79 NW8       30.14S WCI  25
ROCHELLE*      CLOUDY    32  28  86 NW6       30.13R WCI  27
DE KALB*       CLOUDY    32  29  90 NW8       30.12R WCI  25
PERU*          CLOUDY    33  29  86 NW10      30.14R WCI  25
$$

ILZ005-006-012>014-019>023-161100-
NORTHEAST ILLINOIS

CITY           SKY/WX    TMP DP  RH WIND       PRES   REMARKS
CHICAGO-OHARE  CLOUDY    34  28  79 NW12G17   30.10R WCI  25
CHICAGO-MIDWAY CLOUDY    34  30  85 NW6       30.10R WCI  29
AURORA         CLOUDY    33  30  88 W10       30.11R WCI  25
LANSING*       CLOUDY    33  32  98 W5        30.12R WCI  28
JOLIET*        CLOUDY    34  33  97 W6        30.13R WCI  29
WAUKEGAN       CLOUDY    34  25  69 VRB5      30.08R WCI  30
DUPAGE AIRPORT CLOUDY    33  27  78 NW7       30.10R WCI  27
KANKAKEE*      CLOUDY    33  31  94 W9        30.14R WCI  25
WHEELING       CLOUDY    35  26  69 NW10      30.11R WCI  27
MORRIS*        CLOUDY    33  32  96 NW5       30.12R WCI  29
ROMEOVILLE*    CLOUDY    32  32  99 W6        30.12R FOG     WCI  26
NORTHERLY ISL    N/A     34  28  79 W6          N/A  WCI  29
$$

LMZ740>746-161100-
SOUTHERN LAKE MICHIGAN

STATION/POSITION SKY/WX   TEMP    WIND        PRES    VSBY  WAVE
                          AIR SEA DIR/SP/G                  HT/PER
                          (F)     (DEG/KT/KT) (MB)    (MI)  (FT/S)
NORTHERLY ISL              34     280/  8/ 10   N/A
CALUMET HARBOR             33     250/  3/  5 1018.7R
BURNS HARBOR               34     280/  5/  7 1019.6S
$$

ILZ025>027-034>036-040-047-049-050-058-095>099-161100-
WEST-CENTRAL ILLINOIS

CITY           SKY/WX    TMP DP  RH WIND       PRES   REMARKS
QUINCY         CLOUDY    33  30  88 NW10      30.17R WCI  25
GALESBURG*     CLOUDY    33  31  92 NW7       30.16S WCI  27
MACOMB*        CLOUDY    32  30  92 NW7       30.18F WCI  26
JACKSONVILLE*  CLOUDY    32  31  96 NW7       30.17S FOG     WCI  26
PITTSFIELD*    CLOUDY    33  32  96 NW7       30.18S WCI  27
$$

ILZ028>032-037-038-041>044-048-051>054-059>061-161100-
CENTRAL ILLINOIS

CITY           SKY/WX    TMP DP  RH WIND       PRES   REMARKS
PONTIAC        CLOUDY    33  33  99 W9        30.15S WCI  26
BLOOMINGTON    CLOUDY    31  30  96 NW9       30.15R WCI  23
DECATUR        CLOUDY    33  30  88 W7        30.17R WCI  27
PEORIA         CLOUDY    34  30  85 VRB5      30.16S WCI  30
LACON*         CLOUDY    33  30  88 W5        30.15R WCI  29
LINCOLN*       CLOUDY    34  32  93 NW6       30.17S WCI  29
SPRINGFIELD    CLOUDY    33  31  92 W7        30.18R WCI  27
TAYLORVILLE    FOG       32  32 100 CALM      30.18S VSB 1
$$

ILZ033-039-045-046-055>057-062-063-161100-
EAST-CENTRAL ILLINOIS

CITY           SKY/WX    TMP DP  RH WIND       PRES   REMARKS
CHAMPAIGN      CLOUDY    32  31  96 W10       30.16R WCI  24
DANVILLE*      CLOUDY    32  30  93 W6        30.14R WCI  26
RANTOUL*       CLOUDY    32  31  96 W7        30.16R WCI  26
MATTOON        CLOUDY    33  33 100 SW5       30.17R FOG     WCI  29
PARIS*         CLOUDY    34  32  92 W9        30.18R WCI  27
$$

ILZ079-100>102-161100-
SOUTHWEST ILLINOIS

CITY           SKY/WX    TMP DP  RH WIND       PRES   REMARKS
ALTON          CLOUDY    34  34 100 SW5       30.18F FOG     WCI  30
BELLEVILLE     CLOUDY    34  30  86 CALM      30.18F
CAHOKIA*       CLOUDY    34  31  88 CALM      30.19S
SPARTA*        CLOUDY    33  33 100 S5        30.22R WCI  28
$$

ILZ064>066-069>071-074>076-080>082-084>086-088>090-092>094-161100-
SOUTH-CENTRAL ILLINOIS

CITY           SKY/WX    TMP DP  RH WIND       PRES   REMARKS
CARBONDALE     CLOUDY    33  32  96 S6        30.22R WCI  28
CAIRO*         FAIR      34  33  96 SW5       30.25S WCI  30
EFFINGHAM*     CLOUDY    33  33 100 S8        30.21R FOG     WCI  27
MARION         CLOUDY    37  34  89 SW5       30.23R WCI  33
MT. VERNON     CLOUDY    35  33  92 SW6       30.21S WCI  30
CENTRALIA*     CLOUDY    35  34  96 SW6       30.20S WCI  30
SALEM*         CLOUDY    35  33  92 S7        30.20R WCI  29
METROPOLIS*    MOCLDY    35  33  92 S3        30.25S
$$

ILZ067-068-072-073-078-083-087-091-161100-
SOUTHEAST ILLINOIS

CITY           SKY/WX    TMP DP  RH WIND       PRES   REMARKS
LAWRENCEVILLE  CLOUDY    35  33  92 SW10      30.20F FOG     WCI  27
FLORA*         CLOUDY    35  35  96 SW6       30.21S FOG     WCI  30
FAIRFIELD*     CLOUDY    36  34  94 CALM      30.20F
HARRISBURG*    CLOUDY    37  36  95 SW3       30.23S
ROBINSON*      CLOUDY    33  33 100 SW8       30.20S FOG     WCI  26
CARMI*         CLOUDY    36  34  93 CALM      30.22S FOG
$$

ABBREVIATIONS USED IN REMARKS
   TC - TEMPERATURE IN CELSIUS
  WCI - WIND CHILL INDEX
   HX - HEAT INDEX
  VSB - VISIBILITY
$$




USA.gov is the U.S. government's official web portal to all federal, state and local government web resources and services.